軌道要素
Epoch 2022 Aug. 9.0 TT = JDT 2459800.5
T 2023 Feb. 18.25328 TT Rudenko
q 1.7353499 (2000.0) P Q
z -0.0002981 Peri. 88.36088 +0.01729441 +0.99012134
+/-0.0000020 Node 171.58009 -0.09141074 -0.13701479
e 1.0005173 Incl. 108.14840 +0.99566309 -0.02977733
From 457 observations 2022 Jan. 9-June 22, mean residual 0".4.
|